Redmond, OR

8:08 AM PDT on April 26, 2018 (GMT -0700)
Roberts Field Airport

Weather History for KRDM - December, 2012

Change the Weather History Date:

Monday, December 3, 2012

  Actual Average Record
Temperature  
Mean Temperature 43 °F 32 °F  
Max Temperature 48 °F 42 °F 67 °F (1965)
Min Temperature 37 °F 22 °F -1 °F (1992)
Degree Days  
Heating Degree Days 22 33  
Month to date heating degree days 66 99  
Since 1 July heating degree days 1599 1873  
Cooling Degree Days 0 0  
Month to date cooling degree days 0 0  
Year to date cooling degree days 206 222  
Moisture  
Dew Point 30 °F    
Average Humidity 63    
Maximum Humidity 76    
Minimum Humidity 49    
Precipitation  
Precipitation T in 0.04 in 0.16 in (1950)
Month to date precipitation 0.63 0.12  
Year to date precipitation 10.57 7.86  
Sea Level Pressure  
Sea Level Pressure 30.00 in    
Wind  
Wind Speed 12 mph (South)    
Max Wind Speed 25 mph    
Max Gust Speed 38 mph    
Visibility 10 miles    
Events Rain    
T = Trace of Precipitation, MM = Missing Value Source: NWS Daily Summary

Daily Weather History Graph

Daily Weather History Graph

Search for Another Location

Airport or City:

Astronomy

Dec. 03, 2012 Rise Set
Actual Time 7:22 AM PST 4:26 PM PST
Civil Twilight 6:50 AM PST 4:58 PM PST
Nautical Twilight 6:13 AM PST 5:35 PM PST
Astronomical Twilight 5:38 AM PST 6:10 PM PST
Moon 9:24 PM PST (12/3) 10:43 AM PST (12/3)
Length of Visible Light 10h 08m
Length of Day
9h 03m
Waning Gibbous, 77% of the Moon is Illuminated
Dec 3
Waning Gibbous
Dec 6
Last Quarter
Dec 13
New
Dec 19
First Quarter
Dec 28
Full

Hourly Weather History & Observations

Time (PST) Temp. Windchill Dew Point Humidity Pressure Visibility Wind Dir Wind Speed Gust Speed Precip Events Conditions
12:56 AM 39.0 °F 31.0 °F 30.0 °F 70% 29.95 in 10.0 mi South 13.8 mph - N/A   Mostly Cloudy
1:56 AM 39.9 °F 32.5 °F 28.9 °F 65% 29.97 in 10.0 mi South 12.7 mph - N/A   Clear
2:56 AM 37.9 °F 29.6 °F 30.9 °F 76% 29.99 in 10.0 mi South 13.8 mph - N/A   Clear
3:56 AM 39.9 °F 34.5 °F 28.0 °F 63% 30.01 in 10.0 mi SSE 8.1 mph - N/A   Clear
4:56 AM 37.0 °F 31.0 °F 30.0 °F 76% 30.04 in 10.0 mi South 8.1 mph - N/A   Clear
6:56 AM 39.9 °F 32.5 °F 28.9 °F 65% 30.04 in 10.0 mi SSW 12.7 mph - N/A   Scattered Clouds
8:56 AM 42.1 °F 35.2 °F 32.0 °F 67% 30.06 in 10.0 mi SSW 12.7 mph - N/A   Clear
9:56 AM 45.0 °F 38.9 °F 32.0 °F 60% 30.07 in 10.0 mi SSW 12.7 mph - N/A   Clear
10:56 AM 46.9 °F - 32.0 °F 56% 30.07 in 10.0 mi SSW 17.3 mph 24.2 mph N/A   Clear
11:56 AM 46.9 °F - 30.0 °F 52% 30.07 in 10.0 mi SW 16.1 mph 25.3 mph N/A   Clear
12:56 PM 46.9 °F - 30.0 °F 52% 30.07 in 10.0 mi SSW 13.8 mph 19.6 mph N/A   Partly Cloudy
1:56 PM 46.9 °F - 30.0 °F 52% 30.06 in 10.0 mi South 15.0 mph 19.6 mph N/A   Overcast
2:56 PM 46.0 °F 41.4 °F 30.9 °F 56% 30.06 in 10.0 mi SSW 9.2 mph - N/A   Overcast
3:56 PM 46.0 °F 41.9 °F 30.0 °F 54% 30.05 in 10.0 mi South 8.1 mph - N/A   Overcast
4:56 PM 43.0 °F 39.5 °F 28.9 °F 58% 30.05 in 10.0 mi South 5.8 mph - N/A   Clear
5:56 PM 42.1 °F 37.7 °F 30.0 °F 62% 30.03 in 10.0 mi SSE 6.9 mph - N/A   Clear
6:56 PM 43.0 °F 39.5 °F 28.0 °F 56% 30.00 in 10.0 mi SSE 5.8 mph - N/A   Clear
7:56 PM 44.1 °F 38.1 °F 28.0 °F 53% 29.96 in 10.0 mi SSE 11.5 mph 18.4 mph N/A   Partly Cloudy
8:56 PM 45.0 °F 40.1 °F 28.9 °F 53% 29.90 in 10.0 mi SSE 9.2 mph 20.7 mph N/A   Overcast
9:56 PM 46.0 °F 37.6 °F 28.0 °F 50% 29.87 in 10.0 mi South 24.2 mph 38.0 mph N/A   Overcast
10:56 PM 43.0 °F 37.2 °F 32.0 °F 65% 29.85 in 10.0 mi South 10.4 mph - 0.00 in   Overcast
11:56 PM 39.9 °F 33.9 °F 35.1 °F 83% 29.83 in 10.0 mi South 9.2 mph - 0.00 in Rain Light Rain